Regional Weather Roundup
Issued by NWS

Home | Current Version | Previous Version | Text Only | Print | Product List | Glossary Off
Versions: 1 2 3 4 5 6 7 8 9 10 11 12 13 14 15 16 17 18 19 20 21 22 23 24 25 26 27 28 29 30 31 32 33 34 35 36 37 38 39 40 41 42 43 44 45 46 47 48 49 50

000
ASUS43 KMKX 211100
RWRWI

WISCONSIN REGIONAL WEATHER ROUNDUP
NATIONAL WEATHER SERVICE MILWAUKEE/SULLIVAN WI
500 AM CST FRI NOV 21 2014

NOTE: "FAIR" INDICATES FEW OR NO CLOUDS BELOW 12,000 FEET WITH NO
SIGNIFICANT WEATHER AND/OR OBSTRUCTIONS TO VISIBILITY.

WIZ001-002-006>008-014>016-023>028-211200-
NORTHWEST WISCONSIN

CITY           SKY/WX    TMP DP  RH WIND       PRES   REMARKS
SUPERIOR ARPT  PTCLDY     1  -4  78 SW5       30.22S WCI  -8
ASHLAND        PTCLDY     5  -2  72 S5        30.23F WCI  -4
HAYWARD        PTCLDY   -10 -15  78 CALM      30.21F
SIREN          PTCLDY    -5 -10  81 CALM      30.23S
CUMBERLAND     PTCLDY    -6  -9  84 CALM      30.22S
RICE LAKE      PTCLDY    -6 -11  80 CALM      30.26S
CHETEK         PTCLDY   -10 -14  81 CALM      30.26R
LADYSMITH      PTCLDY    -6 -11  80 CALM      30.27S
EAU CLAIRE     NOT AVBL
MENOMONIE      PTCLDY    -3  -8  82 E3        30.28S
NEW RICHMOND   PTCLDY     1  -2  84 SE3       30.24F
OSCEOLA        PTCLDY    -1  -5  85 CALM      30.27F
$$

WIZ003>005-009-010-017-018-211200-
NORTH CENTRAL WISCONSIN

CITY           SKY/WX    TMP DP  RH WIND       PRES   REMARKS
MANITOWISH WTR MOCLDY     0  -4  83 S3        30.19R
ARBOR VITAE    PTCLDY     1  -4  79 CALM      30.19F
WOODRUFF       PTCLDY     1  -4  79 CALM      30.19F
RHINELANDER    MOCLDY    -2  -6  83 CALM      30.22R
EAGLE RIVER    PTCLDY    -2  -7  79 CALM      30.19S
LAND O LAKES   PTCLDY    -3  -7  84 SW3       30.19S
PHILLIPS       PTCLDY    -1  -4  85 S3        30.21S
TOMAHAWK       MOCLDY    -4  -8  82 CALM      30.25R
MEDFORD        PTCLDY    -4  -7  84 S3        30.23S
MERRILL        CLOUDY    -7 -11  82 CALM      30.26S
$$

WIZ029-030-035-036-043>047-211200-
CENTRAL WISCONSIN

CITY           SKY/WX    TMP DP  RH WIND       PRES   REMARKS
WAUSAU         MOCLDY    -1  -5  82 NE3       30.27S
MOSINEE        MOCLDY     1   0  92 W3        30.28R
MARSHFIELD     PTCLDY    -1  -6  79 CALM      30.28R
STEVENS POINT  MOCLDY    -8 -12  83 CALM      30.31R
WAUPACA        PTCLDY     3  -2  80 CALM      30.34R
WAUTOMA        NOT AVBL
WISC RAPIDS    MOCLDY    -5 -11  75 CALM      30.33R
CAMP DOUGLAS   NOT AVBL
$$

WIZ011>013-019>022-031-037>040-048>050-211200-
NORTHEAST WISCONSIN

CITY           SKY/WX    TMP DP  RH WIND       PRES   REMARKS
ANTIGO         MOCLDY    -7 -10  86 CALM      30.24S
SHAWANO        MOCLDY     5   0  79 CALM      30.33R
OCONTO         PTCLDY     5  -1  77 W7        30.33R WCI  -7
STURGEON BAY   CLEAR     10   3  72 SW7       30.31R WCI   0
GREEN BAY      PTCLDY     4  -2  76 S5        30.35R WCI  -5
MANITOWOC      NOT AVBL
APPLETON       NOT AVBL
CLINTONVILLE   PTCLDY     3  -2  78 CALM      30.33R
OSHKOSH        PTCLDY     4  -3  73 CALM      30.35R
$$

WIZ032>034-041-042-053>061-211200-
SOUTHWEST WISCONSIN

CITY           SKY/WX    TMP DP  RH WIND       PRES   REMARKS
LA CROSSE      PTCLDY     5   1  83 SE6       30.34F WCI  -6
SPARTA         PTCLDY    -7 -11  81 CALM      30.33S
VIROQUA        PTCLDY     6   3  88 S5        30.29R WCI  -3
BOSCOBEL       PTCLDY    -1  -6  79 CALM      30.38R
PRAIRIE DU CHI FLURRIES   3  -2  79 CALM      30.37S
PLATTEVILLE    PTCLDY     5   1  85 CALM      30.36R
$$

WIZ056-057-062-063-064-067-068-211200-
SOUTH CENTRAL WISCONSIN

CITY           SKY/WX    TMP DP  RH WIND       PRES   REMARKS
REEDSBURG      MOCLDY     0  -3  84 CALM      30.34S
BARABOO/DELLS  MOCLDY     2  -3  81 S5        30.33S WCI  -7
LONE ROCK      NOT AVBL
MINERAL POINT  PTCLDY     9   3  78 SE3       30.32S
MADISON        PTCLDY     3  -2  79 CALM      30.36R
MIDDLETON      PTCLDY     5   0  79 CALM      30.35S
WATERTOWN      PTCLDY     2  -2  82 CALM      30.36R
MONROE         PTCLDY     9   5  85 CALM      30.33S
JANESVILLE     CLEAR      5   1  85 CALM      30.37R
$$

WIZ051-052-058>065-066-070>072-211200-
SOUTHEAST WISCONSIN

CITY           SKY/WX    TMP DP  RH WIND       PRES   REMARKS
MILWAUKEE      PTCLDY    12  -1  56 W7        30.37S WCI   1
WAUKESHA       PTCLDY     3   0  85 CALM      30.36R
MILWAUKEE/TIMM PTCLDY     9   0  66 CALM      30.37S
RACINE         PTCLDY     9  -1  64 W7        30.39R WCI  -2
BURLINGTON     PTCLDY    -1  -4  86 SW7       30.37R WCI -14
KENOSHA        PTCLDY     6   0  76 W5        30.38R WCI  -3
FOND DU LAC    PTCLDY     2  -4  76 S3        30.35R
SHEBOYGAN      PTCLDY     6  -1  73 W6        30.35R WCI  -4
WEST BEND      PTCLDY     7   0  72 SW5       30.35R WCI  -2
JUNEAU         PTCLDY     3  -3  76 S3        30.36R
$$

LSZ147-162-211200-
LAKE SUPERIOR

STATION/POSITION TIME  TEMP    WIND        PRES    WAVE
                       AIR SEA DIR/SP/G            HT/PER
                 (UTC) (F)     (DEG/KT/KT) (MB)    (FT/S)
DEVILS ISLAND    1000   16     210/ 15/ 21 1024.0F
PORT WING        1040    7     160/  7/  9 1023.0F
SAXON HARBOR     1040    8     190/  4/  9 1023.7F
$$

LMZ867-665-643>646-211200-
LAKE MICHIGAN

STATION/POSITION TIME  TEMP    WIND        PRES    WAVE
                       AIR SEA DIR/SP/G            HT/PER
                 (UTC) (F)     (DEG/KT/KT) (MB)    (FT/S)
CHAMBERS ISLAND  1000   14     250/  4/ 13 1025.7R
N MID LAKE BUOY  0950   21 42  310/ 12/ 16 1025.8R   3/ 5
NORTHPORT PIER   1006   17     280/  4/ 11 1025.7R
SISTER BAY       1028          310/ 15/ 17   N/A
ALGOMA LAKESHORE 0958          270/  5/  9   N/A
KEWAUNEE LAKESHO 1000    8     280/  6/  8 1025.7R
SHEBOYGAN LAKESH 1000   11 35  280/ 12/ 14 1029.0R
PORT WASHINGTON  1000   11     290/  6/  9 1028.8R
ATWATER BUOY     1000   16     280/ 12/ 14 1028.7R
MILWAUKEE LAKESH 1000   13     290/  9/ 11   N/A
S MID LAKE BUOY  0950   22 43  300/ 12/ 16 1029.1R   4/ 7
KENOSHA   LAKESH 1000   12     290/  7/ 11 1028.4R
$$

TC  - TEMPERATURE IN CELSIUS
VSB - VISIBILITY IN STATUTE MILES
WCI - WIND CHILL INDEX
HX  - HEAT INDEX




USA.gov is the U.S. government's official web portal to all federal, state and local government web resources and services.